Voltar ao catálogo

FENGYUN 1C DEB

AtivoSSO
NORAD 30765·DEBRIS·🇨🇳 China

Lançado May 10, 1999 de Taiyuan Satellite Launch Center

Loading…

Próximas Passagens (próximas 24 horas)

TLE

AtualizadoSource: Space-Track

Época: Sep 14, 2026, 15:11 UTC

1 30765U 99025AUB 26257.63301279  .00000844  00000-0  44465-3 0  9991
2 30765  98.7617 304.0946 0068643 142.0037  12.0085 14.15418713  7010

Acompanhe FENGYUN 1C DEB em tempo real com AllMySat

Download on the App Store